Harlan, IA

12:46 PM CDT on September 17, 2019 (GMT -0500)
Harlan Municipal

Weather History for KHNR - August, 2019

Change the Weather History Date:

Wednesday, August 21, 2019

  Actual Average Record
Temperature  
Mean Temperature 70 °F -  
Max Temperature 75 °F 82 °F 100 °F (1955)
Min Temperature 62 °F 61 °F 45 °F (1950)
Cooling Degree Days 4    
Growing Degree Days 20 (Base 50)    
Moisture  
Dew Point 68 °F    
Average Humidity 98    
Maximum Humidity 100    
Minimum Humidity 83    
Precipitation  
Precipitation 1.41 in - - ()
Sea Level Pressure  
Sea Level Pressure 30.05 in    
Wind  
Wind Speed 6 mph ()    
Max Wind Speed 13 mph    
Max Gust Speed 18 mph    
Visibility 8.1 miles    
Events Rain    
Averages and records for this station are not official NWS values.
T = Trace of Precipitation, MM = Missing Value Source: Averaged Metar Reports

Daily Weather History Graph

Daily Weather History Graph

Search for Another Location

Airport or City:

Astronomy

Aug. 21, 2019 Rise Set
Actual Time 6:36 AM CDT 8:12 PM CDT
Civil Twilight 6:06 AM CDT 8:41 PM CDT
Nautical Twilight 5:31 AM CDT 9:16 PM CDT
Astronomical Twilight 4:53 AM CDT 9:54 PM CDT
Moon 11:25 PM CDT (8/21) 12:17 PM CDT (8/21)
Length of Visible Light 14h 34m
Length of Day
13h 36m
Waning Gibbous, 69% of the Moon is Illuminated
Aug 21
Waning Gibbous
Aug 23
Last Quarter
Aug 30
New
Sep 5
First Quarter
Sep 13
Full

Hourly Weather History & Observations

Time (CDT) Temp. Dew Point Humidity Pressure Visibility Wind Dir Wind Speed Gust Speed Precip Events Conditions
12:35 AM 75.2 °F 75.2 °F 100% 30.02 in 5.0 mi Calm Calm - N/A   Mostly Cloudy
12:55 AM 75.2 °F 75.2 °F 100% 30.02 in 4.0 mi NNE 6.9 mph - N/A   Mostly Cloudy
1:15 AM 75.2 °F 75.2 °F 100% 30.01 in 5.0 mi Calm Calm - N/A   Partly Cloudy
1:55 AM 75.2 °F 75.2 °F 100% 30.00 in 8.0 mi North 4.6 mph - N/A   Partly Cloudy
2:15 AM 75.2 °F 75.2 °F 100% 29.98 in 5.0 mi NNE 6.9 mph 12.7 mph N/A   Mostly Cloudy
2:35 AM 73.4 °F 73.4 °F 100% 29.96 in 7.0 mi NNE 10.4 mph - N/A   Mostly Cloudy
2:55 AM 73.4 °F 73.4 °F 100% 29.97 in 10.0 mi NNE 9.2 mph - N/A   Scattered Clouds
3:15 AM 73.4 °F 73.4 °F 100% 29.97 in 10.0 mi NE 8.1 mph - N/A   Clear
3:35 AM - - N/A% 29.99 in 10.0 mi NE 5.8 mph - N/A   Clear
3:55 AM 71.6 °F 71.6 °F 100% 29.99 in 10.0 mi North 8.1 mph - N/A   Clear
4:15 AM 71.6 °F 71.6 °F 100% 29.99 in 10.0 mi NNE 8.1 mph - N/A   Clear
4:55 AM 71.6 °F 71.6 °F 100% 29.99 in 10.0 mi NE 6.9 mph - N/A   Clear
5:15 AM 71.6 °F 71.6 °F 100% 29.99 in 10.0 mi NE 8.1 mph - N/A   Clear
5:35 AM 71.6 °F 71.6 °F 100% 30.03 in 10.0 mi Calm Calm - N/A   Clear
5:55 AM 71.6 °F 71.6 °F 100% 30.06 in 10.0 mi NNW 3.5 mph - N/A   Mostly Cloudy
6:15 AM 71.6 °F 71.6 °F 100% 30.03 in 10.0 mi North 6.9 mph - N/A   Overcast
6:35 AM 69.8 °F 69.8 °F 100% 30.04 in 10.0 mi North - - N/A   Overcast
6:55 AM 69.8 °F 69.8 °F 100% 30.04 in 10.0 mi North 8.1 mph 15.0 mph N/A   Overcast
7:15 AM 69.8 °F 69.8 °F 100% 30.06 in 10.0 mi NNW 6.9 mph - N/A   Overcast
7:35 AM 69.8 °F 69.8 °F 100% 30.11 in 10.0 mi SSW 8.1 mph - N/A   Overcast
7:55 AM 69.8 °F 69.8 °F 100% 30.12 in 4.0 mi West 10.4 mph - 0.22 in Rain Rain
8:15 AM 68.0 °F 68.0 °F 100% 30.13 in 0.5 mi North 6.9 mph - N/A Rain Heavy Rain
8:35 AM 68.0 °F 68.0 °F 100% 30.11 in 0.8 mi North 8.1 mph - N/A Rain Heavy Rain
8:55 AM 68.0 °F 68.0 °F 100% 30.07 in 2.0 mi NNE 10.4 mph - 1.10 in Rain Heavy Rain
9:15 AM 68.0 °F 68.0 °F 100% 30.05 in 6.0 mi NNE 8.1 mph - N/A Rain Light Rain
9:35 AM 68.0 °F 68.0 °F 100% 30.03 in 8.0 mi NE 8.1 mph - N/A   Partly Cloudy
9:55 AM 68.0 °F 68.0 °F 100% 30.04 in 9.0 mi NNE 9.2 mph - 0.01 in   Partly Cloudy
10:15 AM 68.0 °F 68.0 °F 100% 30.07 in 10.0 mi NNE 8.1 mph - N/A   Mostly Cloudy
10:35 AM 69.8 °F 69.8 °F 100% 30.07 in 9.0 mi NE 5.8 mph - N/A Rain Light Rain
10:55 AM 69.8 °F 69.8 °F 100% 30.07 in 10.0 mi North 4.6 mph - N/A   Scattered Clouds
11:15 AM 69.8 °F 69.8 °F 100% 30.08 in 5.0 mi NW 9.2 mph - N/A Rain Light Rain
11:35 AM 69.8 °F 69.8 °F 100% 30.09 in 7.0 mi NNW 8.1 mph - N/A   Light Drizzle
11:55 AM 69.8 °F 69.8 °F 100% 30.09 in 5.0 mi NW 8.1 mph - 0.01 in Rain Light Rain
12:15 PM 69.8 °F 69.8 °F 100% 30.08 in 8.0 mi North 9.2 mph - N/A   Light Drizzle
12:35 PM 69.8 °F 69.8 °F 100% 30.09 in 6.0 mi North 6.9 mph - N/A Rain Light Rain
12:55 PM 69.8 °F 69.8 °F 100% 30.07 in 6.0 mi NNE 12.7 mph 18.4 mph 0.01 in Rain Light Rain
1:15 PM 69.8 °F 69.8 °F 100% 30.07 in 7.0 mi NNE 12.7 mph - N/A   Light Drizzle
1:35 PM 69.8 °F 69.8 °F 100% 30.07 in 4.0 mi NNE 12.7 mph 18.4 mph N/A Rain Light Rain
1:55 PM 69.8 °F 68.0 °F 94% 30.08 in 8.0 mi NE 9.2 mph 15.0 mph 0.01 in   Clear
2:15 PM 66.2 °F 60.8 °F 83% 30.11 in 9.0 mi North 6.9 mph - N/A   Mostly Cloudy
2:35 PM 64.4 °F 60.8 °F 88% 30.09 in 5.0 mi NNE 6.9 mph - N/A Rain Light Rain
2:55 PM 64.4 °F 60.8 °F 88% 30.10 in 10.0 mi North 6.9 mph - 0.01 in   Scattered Clouds
3:15 PM 64.4 °F 62.6 °F 94% 30.11 in 4.0 mi NNW 6.9 mph - N/A Rain Light Rain
3:35 PM 66.2 °F 64.4 °F 94% 30.10 in 9.0 mi North 9.2 mph - N/A   Clear
3:55 PM 66.2 °F 66.2 °F 100% 30.08 in 3.0 mi North 8.1 mph - 0.03 in Rain Light Rain
4:15 PM 68.0 °F 66.2 °F 94% 30.07 in 9.0 mi North 8.1 mph - N/A   Clear
4:35 PM 66.2 °F 62.6 °F 88% 30.07 in 8.0 mi North 5.8 mph - N/A Rain Light Rain
4:55 PM 66.2 °F 64.4 °F 94% 30.06 in 9.0 mi North 4.6 mph - 0.01 in   Unknown
5:15 PM 68.0 °F 66.2 °F 94% 30.04 in 9.0 mi NNE 5.8 mph - N/A   Partly Cloudy
5:35 PM 68.0 °F 66.2 °F 94% 30.04 in 10.0 mi North 4.6 mph - N/A   Clear
5:55 PM 69.8 °F 66.2 °F 88% 30.03 in 10.0 mi NNW 4.6 mph - N/A   Partly Cloudy
6:15 PM 69.8 °F 68.0 °F 94% 30.02 in 10.0 mi Calm Calm - N/A   Clear
6:35 PM 69.8 °F 68.0 °F 94% 30.02 in 10.0 mi Calm Calm - N/A   Scattered Clouds
6:55 PM 69.8 °F 68.0 °F 94% 30.01 in 10.0 mi Calm Calm - N/A   Mostly Cloudy
7:15 PM 69.8 °F 68.0 °F 94% 30.03 in 10.0 mi North 6.9 mph - N/A   Overcast
7:35 PM 69.8 °F 68.0 °F 94% 30.03 in 10.0 mi North 4.6 mph - N/A   Overcast
7:55 PM 69.8 °F 69.8 °F 100% 30.03 in 10.0 mi NE 3.5 mph - N/A   Overcast
8:15 PM 68.0 °F 68.0 °F 100% 30.04 in 10.0 mi NNE 8.1 mph - N/A   Overcast
8:35 PM 68.0 °F 68.0 °F 100% 30.05 in 10.0 mi NE 4.6 mph - N/A   Mostly Cloudy
8:55 PM 68.0 °F 68.0 °F 100% 30.06 in 10.0 mi Calm Calm - N/A   Partly Cloudy
9:15 PM 66.2 °F 66.2 °F 100% 30.07 in 10.0 mi NNE 4.6 mph - N/A   Clear
9:35 PM 66.2 °F 66.2 °F 100% 30.07 in 10.0 mi Calm Calm - N/A   Mostly Cloudy
9:55 PM 66.2 °F 66.2 °F 100% 30.08 in 8.0 mi NNE 5.8 mph - N/A   Scattered Clouds
10:15 PM 66.2 °F 66.2 °F 100% 30.08 in 10.0 mi NE 4.6 mph - N/A   Mostly Cloudy
10:35 PM 64.4 °F 64.4 °F 100% 30.09 in 10.0 mi ENE 3.5 mph - N/A   Partly Cloudy
10:55 PM 64.4 °F 64.4 °F 100% 30.08 in 10.0 mi ENE 3.5 mph - N/A   Clear
11:15 PM 64.4 °F 64.4 °F 100% 30.09 in 9.0 mi NNE 4.6 mph - N/A   Clear
11:35 PM 64.4 °F 64.4 °F 100% 30.09 in 10.0 mi NNE 3.5 mph - N/A   Clear
11:55 PM 62.6 °F 62.6 °F 100% 30.09 in 10.0 mi NNE 6.9 mph - N/A   Clear